Home   Weather   Onex   Past weeks

Flag for Switzerland Past Weather in Onex, Geneva, Switzerland — Yesterday and Last 2 Weeks

Now
39 °F

Partly cloudy.


Feels Like: 33 °F
Forecast: 28 / 47 °F
Wind: 9 mph from Northeast

Location: Geneva Cointrin Airport

Current Time: Dec 3, 2016 at 3:43:48 am

Latest Report: Dec 3, 2016 at 2:50 am


Visibility: N/A

Pressure: 30.07 "Hg

Humidity: 81%

Dew Point: 34 °F

Location of OnexLocation

Past Weather in Onex — Graph

°F

Onex Temperature Yesterday

Maximum temperature yesterday: 43 °F (at 3:20 pm)
Minimum temperature yesterday: 25 °F (at 4:50 am)
Average temperature yesterday: 34 °F

High & Low Weather Summary for the Past Weeks

 TemperatureHumidityPressure
High63 °F (Nov 20, 2:50 pm)100% (Nov 19, 9:50 pm)30.60 "Hg (Nov 19, 9:50 pm)
Low25 °F (Nov 30, 5:50 am)39% (Nov 20, 1:50 pm)29.62 "Hg (Nov 21, 5:20 am)
Average43 °F86%30.01 "Hg
* Reported Nov 18 2:20 am — Dec 3 2:20 am, Onex, Weather by CustomWeather, © 2016

Note: Actual official high and low records may vary slightly from our data, if they occured in-between our weather recording intervals... More about our weather records

Advertising

Onex Weather History for the Previous 24 Hours

Scroll right to see more
 ConditionsComfort  
Time TempWeatherWind HumidityBarometerVisibility
2:20 am
Sat, Dec 3
37 °FPassing clouds.7 mph81%30.07 "HgN/A
1:50 am39 °FPassing clouds.9 mph75%30.07 "HgN/A
1:20 am39 °FPassing clouds.7 mph75%30.07 "HgN/A
12:50 am39 °FPassing clouds.12 mph81%30.07 "HgN/A
12:20 am39 °FPassing clouds.13 mph81%30.07 "HgN/A
11:50 pm
Fri, Dec 2
41 °FPassing clouds.8 mph76%30.07 "HgN/A
11:20 pm41 °FPassing clouds.3 mph76%30.07 "HgN/A
10:50 pm39 °FPassing clouds.2 mph81%30.07 "HgN/A
10:20 pm41 °FPassing clouds.9 mph76%30.07 "HgN/A
9:50 pm41 °FPassing clouds.10 mph70%30.07 "HgN/A
9:20 pm39 °FPassing clouds.10 mph75%30.07 "HgN/A
8:50 pm41 °FPassing clouds.10 mph70%30.07 "HgN/A
8:20 pm41 °FClear.13 mph70%30.07 "Hg10 mi
7:50 pm41 °FClear.13 mph70%30.07 "Hg10 mi
7:20 pm41 °FClear.12 mph70%30.07 "Hg10 mi
6:50 pm39 °FClear.7 mph75%30.07 "Hg10 mi
6:20 pm39 °FChilly.6 mph70%30.07 "HgN/A
5:50 pm37 °FPassing clouds.3 mph70%30.07 "HgN/A
5:20 pm41 °FPassing clouds.3 mph66%30.07 "HgN/A
4:50 pm41 °FClear.6 mph70%30.07 "Hg10 mi
4:20 pm43 °FSunny.9 mph61%30.07 "Hg10 mi
3:50 pm43 °FSunny.12 mph61%30.07 "Hg10 mi
3:20 pm43 °FPassing clouds.7 mph66%30.09 "HgN/A
2:50 pm41 °FPassing clouds.5 mph76%30.09 "HgN/A
2:20 pm41 °FPassing clouds.7 mph76%30.09 "HgN/A
1:50 pm41 °FPassing clouds.6 mph76%30.09 "HgN/A
1:20 pm39 °FPassing clouds.8 mph81%30.12 "HgN/A
12:50 pm39 °FPassing clouds.8 mph81%30.15 "HgN/A
12:20 pm39 °FScattered clouds.9 mph81%30.15 "HgN/A
11:50 am37 °FScattered clouds.5 mph87%30.18 "Hg5 mi
11:20 am36 °FPartly sunny.5 mph93%30.18 "Hg3 mi
10:50 am34 °FFog.2 mph100%30.18 "Hg2 mi
10:20 am34 °FFog.3 mph93%30.18 "Hg2 mi
9:50 am32 °FIce fog.5 mph100%30.18 "Hg2 mi
9:20 am30 °FIce fog.2 mph100%30.18 "Hg2 mi
8:50 am28 °FPartly sunny.2 mph93%30.18 "Hg4 mi
8:20 am25 °FPartly sunny.2 mph100%30.18 "Hg4 mi
7:50 am25 °FClear.1 mph93%30.18 "Hg4 mi
7:20 am25 °FClear.2 mph100%30.18 "Hg5 mi
6:50 am25 °FClear.2 mph100%30.18 "Hg4 mi
6:20 am27 °FClear.3 mph93%30.18 "Hg4 mi
5:50 am25 °FClear.1 mph100%30.18 "Hg4 mi
5:20 am25 °FPassing clouds.2 mph100%30.18 "Hg4 mi
4:50 am25 °FCold.No wind100%30.21 "Hg4 mi
4:20 am27 °FChilly.2 mph93%30.21 "Hg4 mi
3:50 am27 °FChilly.2 mph93%30.21 "Hg3 mi
3:20 am27 °FChilly.2 mph100%30.21 "Hg4 mi
Weather by CustomWeather, © 2016

See weather overviewHow to use our weather pages